ESUT Weather Reports


time (UTC)temp
C
wind
direction
speed
KPH
gust
KPH
rain 1hr
cm
rain 24hr
cm
rain mn
cm
humidity
%
barometer
mb
20260506133307 5 290 12.9 0.0 0.00 0.00 0.00 52 1007.0
20260506130308 5 310 16.1 0.0 0.00 0.00 0.00 56 1007.0
20260506123307 5 290 16.1 0.0 0.00 0.00 0.00 56 1007.0
20260506120308 3 310 16.1 0.0 0.00 0.00 0.00 60 1007.0
20260506113308 2 310 16.1 0.0 0.00 0.00 0.00 59 1007.0
20260506110307 3 300 14.5 0.0 0.00 0.00 0.00 48 1006.0
20260506103306 2 310 12.9 0.0 0.00 0.00 0.00 64 1006.0
20260506100308 3 310 14.5 0.0 0.00 0.00 0.00 60 1006.0
20260506093307 3 320 16.1 0.0 0.00 0.00 0.00 64 1006.0
20260506090307 1 280 14.5 0.0 0.00 0.00 0.00 69 1006.0
20260506083307 1 320 12.9 0.0 0.00 0.00 0.00 80 1005.0
20260506073307 0 330 11.3 0.0 0.00 0.00 0.00 80 1005.0
20260506070306 0 310 12.9 0.0 0.00 0.00 0.00 80 1004.0
20260506060306 0 290 12.9 0.0 0.00 0.00 0.00 92 1004.0
20260506050306 0 360 8.0 0.0 0.00 0.00 0.00 10 1003.0
20260506043307 -1 0 3.2 0.0 0.00 0.00 0.00 10 1003.0
20260506040307 -1 0 4.8 0.0 0.00 0.00 0.00 10 1003.0
20260506033307 -1 90 3.2 0.0 0.00 0.00 0.00 10 1003.0
20260506030307 -1 0 0.0 0.0 0.00 0.00 0.00 10 1002.0
20260506023306 -1 210 3.2 0.0 0.00 0.00 0.00 10 1002.0
20260506020306 -1 220 3.2 0.0 0.00 0.00 0.00 10 1002.0
20260506013307 -1 0 0.0 0.0 0.00 0.00 0.00 10 1002.0
20260506010307 -1 90 3.2 0.0 0.00 0.00 0.00 10 1002.0
20260506003306 -1 0 3.2 0.0 0.00 0.00 0.00 10 1002.0
20260506000307 -1 140 3.2 0.0 0.00 0.00 0.00 92 1002.0
20260505233307 0 0 4.8 0.0 0.00 0.00 0.00 80 1001.0
20260505230306 0 190 3.2 0.0 0.00 0.00 0.00 80 1002.0
20260505223306 0 0 4.8 0.0 0.00 0.00 0.00 80 1002.0
20260505220306 0 0 3.2 0.0 0.00 0.00 0.00 80 1002.0
20260505213306 0 0 3.2 0.0 0.00 0.00 0.00 80 1002.0
20260505210306 0 0 4.8 0.0 0.00 0.00 0.00 80 1002.0
20260505203306 0 0 3.2 0.0 0.00 0.00 0.00 80 1002.0
20260505200306 0 0 3.2 0.0 0.00 0.00 0.00 80 1002.0
20260505193306 0 330 4.8 0.0 0.00 0.00 0.00 80 1002.0
20260505190306 0 0 4.8 0.0 0.00 0.00 0.00 80 1002.0
20260505183306 0 280 8.0 0.0 0.00 0.00 0.00 74 1002.0
20260505180307 0 320 11.3 0.0 0.00 0.00 0.00 69 1002.0
20260505173307 0 280 11.3 0.0 0.00 0.00 0.00 64 1002.0
20260505170307 1 320 14.5 0.0 0.00 0.00 0.00 59 1001.0
20260505163307 1 310 19.3 0.0 0.00 0.00 0.00 55 1001.0
20260505160307 1 310 22.5 0.0 0.00 0.00 0.00 59 1001.0
20260505153307 1 320 14.5 0.0 0.00 0.00 0.00 64 1001.0
20260505150306 1 320 19.3 0.0 0.00 0.00 0.00 69 1002.0
20260505140307 1 310 22.5 0.0 0.00 0.00 0.00 64 1001.0